Temperature
17 17 17 17 17 17 17 17 18 18 18 18 18 18 18 18 18 18 18 18 18 18 18 18 18 18 18 18 18 18 18 18 18 18 18 18 18 18 18 18 18 18 18
17 17 17 17 17 17 17 17 17 18 18 18 18 18 18 18 18 18 18 18 18 18 18 18 18 18 18 18 18 18 18 18 18 18 18 18 18 18 18 18 18 18 18
17 17 17 17 17 17 17 17 17 17 18 18 18 18 18 18 18 18 18 18 18 18 18 18 18 18 18 18 18 18 18 18 18 18 18 18 18 18 18 18 18 18 18
17 17 17 17 17 17 17 17 17 17 17 18 18 17 17 17 18 18 18 18 18 18 18 18 18 18 17 17 18 18 18 18 17 17 17 18 18 18 18 18 18 18 18
17 17 17 17 17 17 17 17 17 17 17 17 17 17 17 17 17 17 17 18 18 18 18 17 17 17 17 17 17 17 17 17 17 17 17 17 17 18 18 18 18 18 18
17 17 17 17 17 17 17 17 17 17 17 17 17 17 17 17 17 17 17 17 17 17 17 17 17 17 17 17 17 17 17 17 17 17 17 17 17 17 17 17 17 17 17
17 17 17 17 17 17 17 17 17 17 17 17 17 17 17 17 17 17 17 17 17 17 17 17 17 17 17 17 17 17 17 17 17 17 17 17 17 17 17 17 17 17 17
17 17 17 17 17 17 17 17 17 17 17 17 17 17 17 17 17 17 17 17 17 17 17 17 17 17 17 17 17 17 17 17 17 17 17 17 17 17 17 17 17 17 17
17 17 17 17 17 17 17 17 16 16 16 16 16 16 16 16 16 16 16 16 16 16 16 16 16 16 16 16 16 16 16 17 17 17 17 17 17 17 17 17 17 17 17
17 17 17 17 17 16 16 16 16 16 16 16 16 16 16 16 16 16 16 16 16 16 16 16 16 16 16 16 16 16 16 16 16 16 16 17 17 17 17 17 17 17 17
17 17 17 17 16 16 16 16 16 16 16 16 16 16 16 16 16 16 16 16 16 16 16 16 16 16 16 16 16 16 16 16 16 16 16 16 16 16 16 16 16 17 17
17 17 17 17 16 16 16 16 16 16 16 16 16 16 16 16 16 16 16 16 16 16 16 16 16 16 16 16 16 16 16 16 16 16 16 16 16 16 16 16 16 16 17
17 17 17 17 16 16 16 16 16 16 16 16 16 16 16 16 16 16 16 16 16 16 16 16 16 16 16 16 16 16 16 16 16 16 16 16 16 16 16 16 16 16 16
17 17 17 17 17 16 16 16 16 16 16 16 16 16 16 16 16 16 15 15 15 15 15 15 15 15 15 15 15 15 15 15 15 15 16 16 16 16 16 16 16 16 16
18 17 17 17 17 17 16 16 16 16 16 16 16 15 15 16 15 15 15 15 15 15 15 15 15 15 15 15 15 15 15 15 15 15 15 15 15 15 15 15 15 15 15
18 18 17 17 17 17 16 16 16 16 16 16 16 15 15 15 15 15 15 15 15 15 15 15 15 15 15 15 15 15 15 15 15 15 15 15 15 15 15 15 15 15 15
18 18 17 17 17 17 16 16 16 16 16 16 15 15 15 15 15 15 15 15 15 15 15 15 15 15 15 15 15 15 15 15 15 15 15 15 15 15 15 15 15 15 15
18 18 17 17 17 17 16 16 16 16 16 16 15 15 15 15 15 15 15 15 15 15 15 15 15 14 14 14 14 14 14 14 14 14 14 14 14 15 15 15 15 15 15
18 18 18 17 17 17 16 16 16 16 16 15 15 15 15 15 15 15 15 15 14 14 14 14 14 14 14 14 14 14 14 14 14 14 14 14 14 14 14 14 14 14 14
18 18 18 17 17 17 16 16 16 16 15 15 15 15 15 15 15 15 15 14 14 14 14 14 14 14 14 14 14 14 14 14 14 14 14 14 14 14 14 14 14 14 14
18 18 18 17 17 17 16 16 16 16 15 15 15 15 15 15 15 14 14 14 14 14 14 14 14 13 13 13 14 13 13 13 13 13 13 13 13 13 13 14 14 14 14
18 18 18 17 17 17 16 16 16 16 15 15 15 15 15 15 14 14 14 14 14 14 13 13 13 13 13 13 13 13 13 13 13 13 13 13 13 13 13 13 13 13 13
18 18 18 17 17 17 16 16 16 15 15 15 15 15 15 15 14 14 14 14 14 13 13 13 13 13 13 13 13 13 13 12 12 12 12 13 13 13 13 13 13 13 13
18 18 18 17 17 17 16 16 16 16 15 15 15 15 15 14 14 14 14 14 13 13 13 13 13 13 13 13 12 12 12 12 12 12 12 12 12 12 12 12 12 12 12
18 18 17 17 17 16 16 16 16 16 15 15 15 15 14 14 14 14 14 13 13 13 13 13 13 13 12 12 12 12 12 12 12 12 12 12 12 12 12 12 12 12 12
18 18 17 17 17 16 16 16 16 15 15 15 15 14 14 14 14 14 13 13 13 13 13 13 12 12 12 12 12 12 12 12 12 12 11 11 11 12 12 12 12 12 12
Wind_Speed
1 2 7 8 9 10 11 11 12 13 14 14 15 15 15 15 15 14 14 15 14 14 14 13 13 12 12 12 12 11 11 10 10 10 10 10 10 10 10 10 9 8 9
4 5 8 9 9 10 11 12 12 13 13 14 14 14 14 14 14 14 14 14 13 13 12 12 12 12 11 12 11 11 10 10 10 10 9 9 10 10 9 9 8 7 8
6 7 8 9 10 11 11 12 12 13 13 13 13 13 13 13 13 13 13 12 12 12 12 11 11 11 11 11 10 11 10 10 9 9 8 7 8 8 9 8 8 8 8
7 7 8 10 10 11 12 12 12 12 12 13 13 12 12 12 12 12 12 11 11 11 11 10 10 10 10 10 10 10 10 10 10 9 7 6 6 8 8 8 8 7 7
7 8 9 10 11 11 11 11 12 12 12 12 12 12 12 11 11 11 11 11 10 10 10 9 9 9 9 9 9 9 9 10 10 9 7 7 7 8 8 8 7 7 7
6 8 9 10 10 11 12 12 12 11 11 11 11 11 11 11 11 11 11 11 10 10 9 9 9 9 8 8 8 9 9 9 9 8 7 7 6 8 9 8 8 7 7
6 7 9 10 10 11 11 11 11 11 11 11 11 10 10 10 10 10 10 11 10 10 9 9 9 9 8 7 7 8 9 10 8 7 6 6 6 8 8 8 8 8 7
7 7 8 10 10 10 10 10 10 10 10 10 10 9 9 9 9 9 9 9 9 9 9 9 9 9 9 9 8 9 9 8 8 7 6 5 7 8 7 7 7 7 7
7 6 6 7 8 9 10 10 10 10 10 9 9 9 8 8 8 8 8 9 9 8 8 8 8 9 9 10 9 10 10 10 7 5 5 5 7 7 7 7 6 6 6
6 6 5 6 7 7 8 9 9 8 8 8 8 8 8 8 7 7 7 7 8 8 8 8 8 8 9 9 9 10 10 10 8 6 5 6 7 7 7 6 6 6 5
6 5 5 5 5 6 6 6 6 6 6 6 5 6 7 6 6 6 6 7 7 7 7 8 9 9 9 9 10 10 9 7 7 6 5 6 7 7 6 6 6 6 6
7 6 5 5 5 5 5 5 4 3 4 4 4 5 6 6 6 6 6 6 6 7 8 9 9 9 8 7 8 9 7 7 6 4 4 6 6 6 6 6 6 6 6
8 7 6 6 5 4 3 4 3 3 4 4 4 5 6 6 5 5 5 6 6 7 7 7 8 7 7 6 6 6 6 6 5 5 4 5 6 6 6 6 6 6 6
8 8 7 6 5 5 4 3 3 3 3 3 4 5 5 4 3 3 4 4 5 5 5 5 5 6 6 6 6 5 6 5 5 5 5 5 6 6 6 6 6 6 6
8 8 7 7 6 5 4 3 3 3 3 4 4 5 6 4 3 2 2 3 4 5 4 4 4 4 5 5 5 5 4 5 5 5 5 6 5 5 6 6 6 5 5
8 8 7 8 7 6 4 3 3 3 4 4 4 5 6 5 4 3 2 2 3 4 4 4 4 4 4 4 5 5 5 5 4 4 4 5 6 6 5 5 5 4 5
8 7 7 8 6 6 5 4 4 4 4 4 4 5 6 6 5 4 2 2 2 4 5 5 5 4 4 4 4 4 4 4 4 4 4 4 5 6 6 5 5 4 5
8 7 8 7 7 6 5 4 3 4 4 3 4 5 6 6 7 5 3 2 3 4 4 3 3 3 4 3 3 3 3 3 3 4 4 5 5 5 5 7 6 6 5
9 9 8 7 8 6 5 4 4 4 3 4 5 5 5 6 7 6 3 2 4 4 3 3 3 3 3 3 2 3 3 3 3 4 4 4 5 5 5 5 7 7 6
9 9 8 8 7 6 5 4 3 3 2 3 4 4 5 5 6 6 4 3 4 3 3 3 3 3 2 2 3 3 3 3 3 3 3 3 4 4 4 5 5 5 6
8 8 8 8 6 6 4 4 3 2 1 2 2 4 5 6 6 6 3 3 3 3 2 3 3 3 3 2 3 3 4 4 4 3 3 3 4 4 4 4 4 4 4
9 8 8 8 7 6 5 4 3 3 2 1 1 3 4 5 6 5 4 3 3 3 3 3 3 2 1 2 2 2 2 4 4 4 3 3 3 3 4 4 4 5 4
8 9 9 8 8 6 6 4 4 3 3 2 1 1 1 4 5 5 5 4 3 3 3 2 2 3 2 1 1 3 2 1 2 3 3 3 3 2 2 3 4 4 4
9 8 8 8 7 7 7 7 7 4 3 3 2 2 1 2 4 5 5 5 3 3 3 2 2 2 3 1 1 1 2 3 2 1 3 3 3 2 2 2 3 3 4
9 8 7 7 7 7 7 8 7 5 3 2 2 2 1 1 2 4 5 4 3 3 2 2 2 2 2 2 1 1 2 2 1 2 1 3 3 3 2 2 2 3 3
7 7 7 7 6 6 7 7 7 7 6 4 3 3 2 1 1 2 3 3 3 3 3 2 2 2 2 2 1 1 2 2 1 2 1 1 1 2 2 2 2 1 1
Wind_Direction
50 103 91 85 80 80 79 80 82 82 81 79 79 78 77 76 77 81 84 86 86 86 84 83 81 81 79 78 78 81 87 90 91 90 87 87 90 94 97 97 99 96 101
154 119 98 92 90 88 87 84 83 84 83 82 81 80 78 77 77 79 81 84 85 85 83 82 81 79 79 78 78 81 83 87 89 87 85 86 90 92 96 97 102 102 103
129 117 103 98 95 93 92 90 88 87 86 85 83 82 80 78 78 78 79 82 83 82 80 77 77 76 76 75 77 78 76 80 90 87 84 80 86 91 96 96 97 102 103
124 118 109 103 99 97 95 93 91 90 90 89 87 85 83 81 80 79 77 80 82 81 80 77 75 74 74 75 74 75 76 79 87 88 80 73 83 92 94 95 94 97 98
117 119 119 110 105 102 100 99 96 94 92 91 89 89 86 85 83 80 79 80 79 79 79 78 76 74 71 70 72 72 77 85 87 83 81 77 79 89 92 95 95 97 98
116 119 124 116 109 105 103 102 99 96 95 94 92 91 90 89 86 83 80 80 78 77 76 76 74 71 68 67 71 72 78 88 86 82 86 85 84 89 88 89 92 94 99
128 125 126 123 117 110 109 107 103 100 97 94 93 92 90 90 89 85 81 79 78 76 75 73 71 66 59 63 73 73 82 89 85 83 86 87 89 88 88 85 84 83 89
136 132 128 126 122 117 114 110 106 103 99 95 91 93 91 89 89 86 83 81 79 75 73 71 68 64 58 59 70 72 78 86 87 84 81 84 95 92 91 89 86 82 81
133 130 125 125 123 122 119 115 109 104 99 94 90 89 91 88 87 87 86 83 81 76 72 68 64 62 56 55 64 69 72 77 82 82 88 87 95 92 89 89 88 87 87
133 134 133 131 127 124 122 117 115 111 106 97 89 86 87 86 85 86 87 86 81 76 69 63 61 61 55 55 60 64 70 72 76 71 75 86 91 87 86 87 86 86 93
140 146 145 140 138 133 132 124 118 111 106 99 92 86 83 83 81 78 81 83 77 68 62 60 62 61 58 56 56 59 65 72 70 68 76 90 90 86 83 83 86 88 91
154 163 165 157 153 152 145 126 116 104 97 100 96 94 88 89 82 77 71 69 62 56 55 60 62 61 58 53 52 56 69 69 66 65 83 98 94 89 83 85 89 90 92
166 164 168 165 158 154 136 129 120 106 99 101 104 111 102 93 81 73 68 59 52 54 55 52 52 55 59 60 57 61 74 76 69 58 69 90 93 89 85 87 90 91 91
163 169 170 161 154 154 139 133 126 113 107 105 109 117 112 101 88 81 73 60 55 58 58 54 56 53 57 57 63 66 71 78 75 62 62 78 86 85 84 84 88 95 94
165 167 164 159 154 146 133 134 120 116 120 115 100 116 125 119 109 93 79 70 61 63 66 60 58 50 49 50 56 63 65 73 76 69 61 65 71 74 76 77 79 94 102
166 166 158 158 151 139 135 132 125 123 121 106 100 111 119 122 117 106 84 68 66 78 82 77 68 57 49 55 48 50 58 69 73 71 66 59 57 60 62 66 68 88 106
165 159 156 157 145 138 136 136 123 122 114 99 102 106 111 117 115 112 98 76 79 89 86 78 64 64 58 54 47 43 54 64 68 66 65 59 51 49 51 53 55 77 103
156 152 156 150 141 135 132 128 117 113 108 101 105 105 107 112 112 106 96 84 94 91 86 79 70 68 56 48 40 30 40 53 51 58 63 59 53 45 45 50 51 64 88
159 154 149 143 146 142 133 122 112 107 100 101 103 102 102 107 110 108 100 98 98 88 77 85 72 79 76 55 44 38 34 42 37 57 56 54 54 53 48 48 48 57 73
160 154 146 145 147 138 126 109 92 81 74 80 94 106 105 105 108 106 103 95 95 84 72 81 81 64 76 62 56 40 23 23 39 49 50 56 55 50 48 48 44 49 65
156 154 153 150 154 144 138 136 127 127 106 71 92 109 107 106 108 107 102 96 90 93 102 103 96 77 52 54 62 32 15 22 33 30 36 47 46 45 51 52 52 55 61
164 163 163 162 163 161 159 159 153 150 147 148 117 96 111 115 118 119 114 115 107 97 87 89 99 93 60 54 95 82 25 360 6 14 23 39 35 45 47 49 58 61 62
168 170 170 171 167 163 152 133 109 81 66 65 79 111 123 127 124 125 127 124 125 119 128 117 119 117 117 22 85 122 128 214 315 341 3 21 19 30 31 46 61 63 72
178 171 167 168 166 164 155 151 151 154 165 194 189 185 176 134 129 131 135 134 137 134 139 150 124 122 124 116 11 52 133 155 150 327 340 355 7 23 13 34 41 44 62
173 166 165 164 167 166 162 162 161 162 174 169 153 154 167 157 139 140 146 142 148 154 157 144 124 116 125 141 139 93 72 65 89 134 290 331 349 347 358 22 57 44 50
166 165 163 166 172 174 171 171 170 169 167 158 161 167 181 189 205 164 154 152 158 169 174 173 159 146 146 140 139 127 134 134 161 131 169 255 310 320 341 14 56 33 36
Height
1528 1527 1526 1525 1524 1524 1523 1523 1522 1522 1521 1521 1521 1520 1520 1520 1520 1519 1519 1519 1519 1519 1519 1519 1519 1520 1520 1520 1520 1520 1520 1520 1520 1520 1521 1521 1521 1521 1521 1521 1521 1521 1522
1528 1527 1527 1526 1525 1525 1524 1524 1523 1523 1523 1522 1522 1522 1522 1521 1521 1521 1521 1521 1521 1521 1521 1521 1521 1521 1522 1521 1521 1521 1521 1521 1521 1521 1522 1522 1522 1522 1522 1522 1522 1522 1523
1528 1528 1528 1527 1526 1526 1525 1525 1524 1524 1524 1524 1523 1523 1523 1523 1523 1523 1523 1522 1522 1522 1522 1522 1523 1523 1523 1523 1523 1523 1523 1523 1523 1523 1523 1523 1523 1523 1523 1523 1523 1523 1523
1529 1529 1528 1528 1527 1527 1526 1526 1525 1525 1525 1525 1525 1524 1524 1524 1524 1524 1524 1524 1524 1524 1524 1524 1524 1524 1523 1523 1524 1524 1524 1524 1524 1524 1524 1524 1524 1524 1524 1524 1524 1524 1524
1529 1529 1529 1529 1528 1528 1527 1527 1527 1526 1526 1526 1526 1526 1526 1525 1525 1525 1525 1525 1525 1525 1525 1525 1524 1524 1524 1524 1524 1525 1525 1525 1525 1524 1524 1524 1524 1524 1524 1524 1524 1524 1524
1530 1530 1530 1529 1529 1529 1528 1528 1528 1528 1528 1527 1527 1527 1527 1527 1527 1526 1526 1526 1526 1526 1526 1525 1525 1525 1525 1524 1525 1525 1525 1525 1525 1525 1525 1525 1525 1525 1525 1525 1525 1525 1525
1530 1530 1530 1530 1530 1530 1529 1529 1529 1529 1529 1529 1528 1528 1528 1528 1528 1528 1527 1527 1527 1527 1527 1526 1526 1526 1525 1523 1524 1525 1525 1525 1526 1526 1526 1526 1526 1525 1525 1525 1525 1525 1525
1531 1531 1531 1531 1531 1531 1530 1530 1530 1530 1530 1530 1529 1529 1529 1529 1529 1529 1529 1528 1528 1528 1528 1527 1527 1526 1525 1523 1523 1525 1526 1526 1527 1526 1526 1526 1526 1526 1526 1526 1525 1525 1525
1532 1532 1532 1532 1532 1532 1531 1531 1531 1531 1531 1531 1531 1530 1530 1530 1530 1530 1530 1529 1529 1529 1528 1528 1528 1527 1526 1525 1525 1526 1526 1527 1527 1527 1527 1527 1527 1526 1526 1526 1526 1525 1525
1533 1533 1533 1533 1533 1533 1533 1533 1533 1532 1532 1532 1532 1531 1531 1531 1531 1530 1530 1530 1530 1530 1530 1529 1528 1528 1527 1527 1527 1527 1528 1528 1528 1528 1528 1527 1527 1527 1526 1526 1525 1525 1525
1533 1534 1534 1534 1534 1534 1534 1534 1534 1533 1533 1533 1533 1532 1532 1532 1531 1531 1531 1531 1531 1531 1530 1530 1529 1529 1528 1528 1528 1528 1528 1529 1529 1528 1528 1528 1527 1527 1526 1526 1525 1525 1525
1533 1534 1534 1534 1534 1534 1534 1534 1534 1534 1534 1534 1534 1533 1533 1533 1532 1532 1532 1532 1532 1531 1531 1531 1530 1530 1529 1529 1529 1529 1529 1529 1529 1529 1529 1528 1528 1527 1526 1525 1525 1525 1524
1533 1534 1534 1534 1535 1535 1535 1535 1535 1535 1535 1534 1534 1534 1534 1533 1533 1533 1533 1533 1532 1532 1532 1531 1531 1531 1530 1530 1530 1530 1530 1530 1530 1530 1529 1529 1528 1527 1526 1525 1525 1524 1524
1533 1533 1534 1535 1535 1535 1535 1535 1535 1535 1535 1535 1535 1534 1534 1534 1534 1533 1533 1533 1533 1532 1532 1532 1532 1531 1531 1531 1531 1531 1530 1530 1530 1530 1529 1529 1528 1527 1526 1525 1525 1524 1524
1532 1533 1534 1534 1535 1535 1535 1536 1536 1536 1535 1535 1535 1535 1535 1534 1534 1534 1533 1533 1533 1533 1533 1532 1532 1532 1531 1531 1531 1531 1531 1530 1530 1530 1529 1529 1528 1527 1527 1526 1525 1524 1524
1532 1533 1533 1534 1535 1535 1535 1535 1536 1536 1536 1536 1535 1535 1535 1535 1534 1534 1534 1533 1533 1533 1533 1533 1532 1532 1532 1531 1531 1531 1531 1531 1530 1530 1530 1529 1528 1527 1527 1526 1525 1524 1524
1531 1532 1533 1534 1534 1535 1535 1536 1536 1536 1536 1536 1535 1535 1535 1535 1534 1534 1534 1533 1533 1533 1533 1533 1532 1532 1532 1532 1531 1531 1531 1531 1531 1530 1530 1529 1529 1528 1527 1526 1525 1524 1524
1530 1531 1532 1533 1534 1534 1535 1535 1535 1536 1536 1536 1535 1535 1535 1535 1534 1534 1534 1533 1533 1533 1533 1532 1532 1532 1532 1532 1531 1531 1531 1531 1531 1530 1530 1529 1529 1528 1527 1527 1525 1524 1524
1529 1530 1531 1532 1533 1534 1534 1535 1535 1535 1535 1535 1535 1535 1535 1534 1534 1534 1533 1533 1533 1532 1532 1532 1532 1532 1531 1531 1531 1531 1531 1531 1530 1530 1530 1530 1529 1529 1528 1527 1526 1526 1525
1527 1529 1530 1531 1532 1533 1534 1534 1534 1535 1535 1535 1535 1535 1534 1534 1534 1533 1533 1532 1532 1532 1532 1531 1531 1531 1531 1531 1531 1531 1531 1531 1531 1530 1530 1530 1529 1529 1528 1528 1527 1527 1526
1526 1527 1528 1529 1530 1531 1532 1532 1533 1533 1534 1534 1534 1534 1534 1534 1533 1533 1532 1532 1531 1531 1531 1531 1531 1531 1531 1531 1531 1531 1531 1531 1531 1530 1530 1530 1529 1529 1528 1528 1528 1527 1527
1523 1525 1526 1527 1529 1530 1531 1531 1532 1533 1533 1533 1533 1533 1533 1533 1533 1532 1532 1531 1531 1531 1530 1530 1530 1530 1530 1530 1530 1530 1530 1532 1531 1530 1530 1530 1529 1529 1529 1528 1528 1528 1528
1521 1522 1524 1525 1527 1528 1529 1530 1531 1532 1532 1532 1532 1532 1532 1532 1532 1531 1531 1531 1530 1530 1530 1530 1529 1529 1529 1529 1530 1530 1530 1530 1530 1530 1530 1529 1529 1529 1528 1528 1528 1528 1528
1518 1520 1522 1523 1525 1526 1527 1528 1529 1529 1530 1530 1530 1531 1531 1531 1531 1530 1530 1530 1530 1529 1529 1529 1529 1529 1529 1529 1529 1529 1530 1530 1530 1529 1529 1529 1529 1528 1528 1528 1528 1528 1528
1515 1517 1519 1521 1523 1524 1525 1526 1527 1528 1528 1529 1529 1529 1529 1529 1529 1529 1529 1529 1529 1528 1528 1528 1528 1528 1528 1528 1528 1528 1528 1528 1528 1528 1528 1528 1528 1528 1527 1527 1527 1527 1528
1513 1515 1517 1518 1520 1521 1523 1524 1525 1525 1526 1527 1527 1527 1527 1527 1527 1528 1528 1528 1527 1527 1527 1527 1527 1527 1527 1527 1527 1527 1527 1527 1527 1527 1527 1527 1527 1527 1527 1527 1527 1527 1527